カタログに戻る

FENGYUN 1C DEB

運用中SSO
NORAD 30619·DEBRIS·🇨🇳 China

打ち上げ May 10, 1999 から Taiyuan Satellite Launch Center

Loading…

次のパス (今後24時間)

TLE

最新Source: Space-Track

元期: Sep 12, 2026, 12:00 UTC

1 30619U 99025ANA 26255.50038001  .00000583  00000-0  14933-3 0  9990
2 30619  98.2772 275.4354 0212171 311.0598  47.2427 14.41732897 28829

AllMySatでFENGYUN 1C DEBをリアルタイム追跡

Download on the App Store